Погода в Русанове

Россия / Воронежская область     51°42′49″N   41°28′18″E
темп.,
°C
ветер,
м/с
пор.,
м/с
влажн.,
%
обл.,
%
осадки,
мм/ч
давл.,
гПа
погр.,
м
15 мая, сб
сб1500:00+17ююв488780 0.0 1012128
03:00+16ююв4990100 0.0 1012162
06:00+17ю51092100 0.0 1013276
09:00+20ююв5883100 0.1 1013389
12:00+22ю3577100 2.1 1014873
15:00+23ю56695 3.9 1013811
18:00+23ю35755 0.3 1013303
21:00+18з33865 0.4 101440
16 мая, вс
вс1600:00+15с22815 0.4 101511
03:00+15ссв2280100 0.4 101512
06:00+16всв34828 0.0 101583
09:00+21в346890 0.0 1015468
12:00+24в336428 0.0 10151184
15:00+25ююв45475 0.0 10141235
18:00+24ююв246310 0.0 101399
21:00+18вюв336892 0.0 101424
17 мая, пн
пн1700:00+17в336863 0.0 101334
03:00+15в476798 0.0 1013104
06:00+16вюв3673100 0.0 1013109
09:00+21юв5958100 0.0 1014331
12:00+26юв610475 0.0 1013802
15:00+26вюв71153100 0.0 1012956
18:00+23вюв51263100 0.0 1011345
21:00+20вюв6166270 0.0 1011325
18 мая, вт
вт1800:00+19вюв7185212 0.0 1011372
03:00+15юв4126215 0.0 1010189
06:00+15юв5136816 0.0 1011234
09:00+21ююв58538 0.0 1011479
12:00+25юв6845100 0.0 10101042
15:00+25ю5853100 0.0 10091243
18:00+23ю2563100 0.0 1009211
21:00+17з497993 0.0 1009172
19 мая, ср
ср1900:00+16юз2289100 0.0 100916
03:00+16ююв3791100 0.6 1010164
06:00+16юв4791100 0.0 1009248
09:00+19ююз697378 0.0 1010723
12:00+19юз687461 0.4 10101223
15:00+20юз6868100 2.2 10111310
18:00+20ююз357099 0.3 1011517
21:00+16ююз3581100 0.4 101286